| time (UTC) | temp F | wind direction | speed knots | gust knots | rain 1hr in | rain 24hr in | rain mn in | humidity % | barometer mb |
| 20260508012912 | 54 | 215 | 0.9 | 3.5 | 0.00 | 0.00 | 0.00 | 100 | 1016.8 |
| 20260508012410 | 54 | 201 | 0.9 | 2.6 | 0.00 | 0.00 | 0.00 | 100 | 1016.8 |
| 20260508011908 | 54 | 214 | 0.9 | 6.1 | 0.00 | 0.00 | 0.00 | 100 | 1016.8 |
| 20260508011405 | 55 | 228 | 2.6 | 7.8 | 0.00 | 0.00 | 0.00 | 100 | 1016.8 |
| 20260508010904 | 55 | 264 | 3.5 | 7.8 | 0.00 | 0.00 | 0.00 | 100 | 1016.9 |
| 20260508010403 | 55 | 233 | 3.5 | 7.0 | 0.00 | 0.00 | 0.00 | 100 | 1016.7 |
| 20260508005902 | 55 | 220 | 3.5 | 7.0 | 0.00 | 0.00 | 0.00 | 100 | 1016.8 |
| 20260508005401 | 55 | 228 | 4.3 | 6.1 | 0.00 | 0.00 | 0.00 | 100 | 1016.8 |
| 20260508004859 | 55 | 215 | 2.6 | 5.2 | 0.00 | 0.00 | 0.00 | 100 | 1016.8 |
| 20260508004358 | 55 | 231 | 3.5 | 6.1 | 0.00 | 0.00 | 0.00 | 100 | 1016.7 |
| 20260508003856 | 55 | 216 | 2.6 | 5.2 | 0.00 | 0.00 | 0.00 | 100 | 1016.7 |
| 20260508003355 | 55 | 254 | 2.6 | 8.7 | 0.00 | 0.00 | 0.00 | 100 | 1016.6 |
| 20260508002854 | 56 | 244 | 2.6 | 8.7 | 0.00 | 0.00 | 0.00 | 100 | 1016.6 |
| 20260508002353 | 56 | 232 | 6.1 | 9.6 | 0.00 | 0.00 | 0.00 | 100 | 1016.6 |
| 20260508001850 | 56 | 221 | 4.3 | 9.6 | 0.00 | 0.00 | 0.00 | 100 | 1016.6 |
| 20260508001349 | 56 | 201 | 3.5 | 7.0 | 0.00 | 0.00 | 0.00 | 100 | 1016.5 |
| 20260508000848 | 56 | 223 | 4.3 | 9.6 | 0.00 | 0.00 | 0.00 | 100 | 1016.6 |
| 20260508000346 | 56 | 222 | 4.3 | 13.0 | 0.00 | 0.00 | 0.00 | 100 | 1016.5 |
| 20260507235844 | 56 | 214 | 6.1 | 13.0 | 0.00 | 0.00 | 0.00 | 100 | 1016.3 |
| 20260507235343 | 56 | 198 | 7.0 | 11.3 | 0.00 | 0.00 | 0.00 | 100 | 1016.4 |
| 20260507234842 | 56 | 193 | 6.1 | 11.3 | 0.00 | 0.00 | 0.00 | 100 | 1016.4 |
| 20260507234341 | 56 | 210 | 5.2 | 10.4 | 0.00 | 0.00 | 0.00 | 100 | 1016.5 |
| 20260507233840 | 56 | 202 | 6.1 | 11.3 | 0.00 | 0.00 | 0.00 | 100 | 1016.3 |
| 20260507233338 | 55 | 219 | 6.1 | 10.4 | 0.00 | 0.00 | 0.00 | 100 | 1016.4 |
| 20260507232837 | 55 | 206 | 3.5 | 8.7 | 0.00 | 0.00 | 0.00 | 100 | 1016.4 |
| 20260507232336 | 55 | 206 | 5.2 | 9.6 | 0.00 | 0.00 | 0.00 | 100 | 1016.6 |
| 20260507231835 | 55 | 186 | 6.1 | 13.9 | 0.00 | 0.00 | 0.00 | 100 | 1016.5 |
| 20260507231334 | 55 | 174 | 7.0 | 13.9 | 0.00 | 0.00 | 0.00 | 100 | 1016.4 |
| 20260507230832 | 55 | 222 | 5.2 | 10.4 | 0.00 | 0.00 | 0.00 | 100 | 1016.4 |
| 20260507230331 | 56 | 222 | 5.2 | 12.2 | 0.00 | 0.00 | 0.00 | 100 | 1016.4 |
| 20260507225830 | 56 | 205 | 4.3 | 13.9 | 0.00 | 0.00 | 0.00 | 100 | 1016.4 |
| 20260507225328 | 56 | 200 | 6.1 | 14.8 | 0.00 | 0.00 | 0.00 | 100 | 1016.5 |
| 20260507224827 | 56 | 204 | 7.0 | 14.8 | 0.00 | 0.00 | 0.00 | 100 | 1016.5 |
| 20260507224326 | 56 | 200 | 6.1 | 13.9 | 0.00 | 0.00 | 0.00 | 100 | 1016.6 |
| 20260507223825 | 56 | 203 | 5.2 | 13.9 | 0.00 | 0.00 | 0.00 | 100 | 1016.5 |
| 20260507222322 | 56 | 189 | 5.2 | 10.4 | 0.00 | 0.00 | 0.00 | 100 | 1016.6 |
| 20260507221821 | 56 | 205 | 5.2 | 13.0 | 0.00 | 0.00 | 0.00 | 100 | 1016.6 |
| 20260507221319 | 56 | 189 | 6.1 | 13.0 | 0.00 | 0.00 | 0.00 | 100 | 1016.6 |
| 20260507220818 | 56 | 201 | 6.1 | 12.2 | 0.00 | 0.00 | 0.00 | 100 | 1016.6 |
| 20260507220314 | 56 | 201 | 5.2 | 12.2 | 0.00 | 0.00 | 0.00 | 100 | 1016.6 |
| 20260507215813 | 56 | 200 | 5.2 | 13.0 | 0.00 | 0.00 | 0.00 | 100 | 1016.6 |
| 20260507215312 | 56 | 185 | 4.3 | 11.3 | 0.00 | 0.00 | 0.00 | 100 | 1016.5 |
| 20260507214309 | 56 | 192 | 6.1 | 11.3 | 0.00 | 0.00 | 0.00 | 100 | 1016.5 |
| 20260507213808 | 55 | 202 | 7.0 | 12.2 | 0.00 | 0.00 | 0.00 | 100 | 1016.3 |
| 20260507213307 | 55 | 194 | 6.1 | 12.2 | 0.00 | 0.00 | 0.00 | 100 | 1016.4 |
| 20260507212806 | 55 | 195 | 5.2 | 13.9 | 0.00 | 0.00 | 0.00 | 100 | 1016.4 |
| 20260507212307 | 55 | 198 | 6.1 | 13.9 | 0.00 | 0.00 | 0.00 | 100 | 1016.3 |
| 20260507211804 | 55 | 206 | 7.8 | 14.8 | 0.00 | 0.00 | 0.00 | 100 | 1016.3 |
| 20260507211304 | 55 | 195 | 7.0 | 16.5 | 0.00 | 0.00 | 0.00 | 100 | 1016.3 |
| 20260507210300 | 56 | 195 | 5.2 | 13.0 | 0.00 | 0.00 | 0.00 | 100 | 1016.3 |
| 20260507205759 | 56 | 206 | 7.0 | 14.8 | 0.00 | 0.00 | 0.00 | 100 | 1016.1 |
| 20260507205258 | 56 | 203 | 7.8 | 15.6 | 0.00 | 0.00 | 0.00 | 100 | 1016.2 |
| 20260507204757 | 56 | 202 | 6.1 | 16.5 | 0.00 | 0.00 | 0.00 | 100 | 1016.3 |
| 20260507204256 | 57 | 203 | 7.8 | 16.5 | 0.00 | 0.00 | 0.00 | 100 | 1016.2 |
| 20260507203755 | 57 | 200 | 7.8 | 13.9 | 0.00 | 0.00 | 0.00 | 100 | 1016.2 |
| 20260507203254 | 57 | 207 | 5.2 | 13.9 | 0.00 | 0.00 | 0.00 | 100 | 1016.2 |
| 20260507202753 | 57 | 211 | 8.7 | 13.9 | 0.00 | 0.00 | 0.00 | 100 | 1016.2 |
| 20260507202252 | 57 | 177 | 7.8 | 13.0 | 0.00 | 0.00 | 0.00 | 100 | 1016.1 |
| 20260507201751 | 57 | 203 | 6.1 | 13.0 | 0.00 | 0.00 | 0.00 | 100 | 1016.2 |
| 20260507200749 | 57 | 198 | 6.1 | 13.0 | 0.00 | 0.00 | 0.00 | 100 | 1016.0 |
| 20260507200246 | 57 | 179 | 7.0 | 13.9 | 0.00 | 0.00 | 0.00 | 100 | 1016.0 |
| 20260507195745 | 57 | 192 | 6.1 | 13.9 | 0.00 | 0.00 | 0.00 | 100 | 1016.0 |
| 20260507195241 | 57 | 203 | 7.0 | 13.0 | 0.00 | 0.00 | 0.00 | 100 | 1016.1 |
| 20260507194740 | 57 | 195 | 5.2 | 11.3 | 0.00 | 0.00 | 0.00 | 100 | 1016.0 |
| 20260507194239 | 57 | 205 | 3.5 | 14.8 | 0.00 | 0.00 | 0.00 | 100 | 1016.0 |
| 20260507193738 | 57 | 201 | 7.0 | 14.8 | 0.00 | 0.00 | 0.00 | 100 | 1015.9 |
| 20260507193236 | 57 | 208 | 5.2 | 10.4 | 0.00 | 0.00 | 0.00 | 100 | 1015.9 |
| 20260507192736 | 58 | 204 | 5.2 | 13.9 | 0.00 | 0.00 | 0.00 | 100 | 1015.9 |
| 20260507192233 | 58 | 200 | 6.1 | 13.9 | 0.00 | 0.00 | 0.00 | 100 | 1015.9 |
| 20260507191731 | 58 | 196 | 6.1 | 11.3 | 0.00 | 0.00 | 0.00 | 100 | 1015.8 |
| 20260507191230 | 58 | 202 | 4.3 | 11.3 | 0.00 | 0.00 | 0.00 | 100 | 1015.8 |
| 20260507190228 | 58 | 202 | 6.1 | 13.0 | 0.00 | 0.00 | 0.00 | 100 | 1015.6 |
| 20260507185726 | 58 | 199 | 5.2 | 11.3 | 0.00 | 0.00 | 0.00 | 100 | 1015.5 |
| 20260507184723 | 59 | 196 | 6.1 | 11.3 | 0.00 | 0.00 | 0.00 | 99 | 1015.2 |
| 20260507184220 | 59 | 202 | 6.1 | 14.8 | 0.00 | 0.00 | 0.00 | 97 | 1015.2 |
| 20260507183717 | 59 | 204 | 7.0 | 16.5 | 0.00 | 0.00 | 0.00 | 97 | 1015.1 |
| 20260507183216 | 60 | 205 | 7.8 | 16.5 | 0.00 | 0.00 | 0.00 | 95 | 1015.0 |
| 20260507182715 | 60 | 200 | 7.8 | 15.6 | 0.00 | 0.00 | 0.00 | 93 | 1015.0 |
| 20260507182213 | 60 | 194 | 8.7 | 16.5 | 0.00 | 0.00 | 0.00 | 91 | 1014.9 |
| 20260507181208 | 61 | 199 | 7.8 | 15.6 | 0.00 | 0.00 | 0.00 | 89 | 1014.8 |
| 20260507180709 | 61 | 202 | 7.0 | 15.6 | 0.00 | 0.00 | 0.00 | 89 | 1014.8 |
| 20260507180206 | 62 | 198 | 7.0 | 12.2 | 0.00 | 0.00 | 0.00 | 89 | 1014.7 |
| 20260507175201 | 61 | 161 | 4.3 | 7.0 | 0.00 | 0.00 | 0.00 | 99 | 1014.5 |
| 20260507174655 | 61 | 164 | 4.3 | 7.0 | 0.00 | 0.00 | 0.00 | 97 | 1014.4 |
| 20260507174154 | 62 | 159 | 4.3 | 7.0 | 0.00 | 0.00 | 0.00 | 94 | 1014.3 |
| 20260507173650 | 62 | 152 | 3.5 | 7.0 | 0.00 | 0.00 | 0.00 | 93 | 1014.2 |
| 20260507173150 | 62 | 157 | 3.5 | 7.0 | 0.00 | 0.00 | 0.00 | 92 | 1014.2 |
| 20260507172648 | 63 | 159 | 4.3 | 7.0 | 0.00 | 0.00 | 0.00 | 90 | 1014.2 |
| 20260507172148 | 63 | 157 | 4.3 | 7.0 | 0.00 | 0.00 | 0.00 | 89 | 1014.1 |
| 20260507171645 | 63 | 155 | 4.3 | 7.0 | 0.00 | 0.00 | 0.00 | 88 | 1014.0 |
| 20260507171144 | 64 | 158 | 4.3 | 7.0 | 0.00 | 0.00 | 0.00 | 85 | 1013.9 |
| 20260507170643 | 64 | 152 | 3.5 | 7.8 | 0.00 | 0.00 | 0.00 | 83 | 1013.8 |
| 20260507170142 | 64 | 156 | 3.5 | 8.7 | 0.00 | 0.00 | 0.00 | 83 | 1013.7 |
| 20260507165641 | 65 | 157 | 3.5 | 8.7 | 0.00 | 0.00 | 0.00 | 81 | 1013.7 |
| 20260507165139 | 65 | 163 | 4.3 | 8.7 | 0.00 | 0.00 | 0.00 | 80 | 1013.7 |
| 20260507164637 | 65 | 162 | 5.2 | 8.7 | 0.00 | 0.00 | 0.00 | 79 | 1013.6 |
| 20260507163634 | 66 | 165 | 3.5 | 10.4 | 0.00 | 0.00 | 0.00 | 75 | 1013.5 |
| 20260507163133 | 67 | 164 | 5.2 | 8.7 | 0.00 | 0.00 | 0.00 | 72 | 1013.4 |
| 20260507162632 | 69 | 165 | 2.6 | 7.0 | 0.00 | 0.00 | 0.00 | 70 | 1013.4 |
| 20260507162131 | 70 | 157 | 4.3 | 7.0 | 0.00 | 0.00 | 0.00 | 66 | 1013.2 |
| 20260507161128 | 69 | 161 | 5.2 | 8.7 | 0.00 | 0.00 | 0.00 | 68 | 1013.4 |
| 20260507160627 | 68 | 159 | 3.5 | 6.1 | 0.00 | 0.00 | 0.00 | 67 | 1013.5 |
| 20260507160124 | 67 | 172 | 3.5 | 5.2 | 0.00 | 0.00 | 0.00 | 70 | 1013.4 |
| 20260507155622 | 67 | 164 | 2.6 | 5.2 | 0.00 | 0.00 | 0.00 | 66 | 1013.4 |
| 20260507155118 | 68 | 166 | 2.6 | 5.2 | 0.00 | 0.00 | 0.00 | 66 | 1013.5 |
| 20260507154617 | 67 | 177 | 1.7 | 4.3 | 0.00 | 0.00 | 0.00 | 62 | 1013.6 |
| 20260507154116 | 67 | 187 | 2.6 | 4.3 | 0.00 | 0.00 | 0.00 | 60 | 1013.7 |
| 20260507153615 | 68 | 212 | 1.7 | 3.5 | 0.00 | 0.00 | 0.00 | 56 | 1013.7 |
| 20260507153113 | 68 | 225 | 1.7 | 4.3 | 0.00 | 0.00 | 0.00 | 54 | 1013.6 |
| 20260507152612 | 69 | 186 | 2.6 | 4.3 | 0.00 | 0.00 | 0.00 | 52 | 1013.6 |
| 20260507152111 | 70 | 233 | 1.7 | 3.5 | 0.00 | 0.00 | 0.00 | 52 | 1013.5 |
| 20260507151109 | 70 | 171 | 0.0 | 3.5 | 0.00 | 0.00 | 0.00 | 55 | 1013.5 |
| 20260507150607 | 68 | 209 | 0.9 | 5.2 | 0.00 | 0.00 | 0.00 | 56 | 1013.6 |
| 20260507150106 | 68 | 245 | 2.6 | 5.2 | 0.00 | 0.00 | 0.00 | 55 | 1013.5 |
| 20260507145605 | 70 | 251 | 2.6 | 5.2 | 0.00 | 0.00 | 0.00 | 52 | 1013.6 |
| 20260507145104 | 70 | 182 | 3.5 | 5.2 | 0.00 | 0.00 | 0.00 | 51 | 1013.6 |
| 20260507144601 | 72 | 251 | 1.7 | 3.5 | 0.00 | 0.00 | 0.00 | 50 | 1013.6 |
| 20260507144100 | 71 | 7 | 1.7 | 3.5 | 0.00 | 0.00 | 0.00 | 49 | 1013.6 |
| 20260507143057 | 70 | 228 | 2.6 | 6.1 | 0.00 | 0.00 | 0.00 | 51 | 1013.6 |
| 20260507142555 | 71 | 219 | 2.6 | 4.3 | 0.00 | 0.00 | 0.00 | 49 | 1013.6 |
| 20260507142053 | 74 | 225 | 0.9 | 4.3 | 0.00 | 0.00 | 0.00 | 47 | 1013.7 |
| 20260507141552 | 72 | 233 | 2.6 | 5.2 | 0.00 | 0.00 | 0.00 | 50 | 1013.7 |
| 20260507141051 | 70 | 195 | 2.6 | 6.1 | 0.00 | 0.00 | 0.00 | 49 | 1013.8 |
| 20260507140550 | 70 | 160 | 3.5 | 6.1 | 0.00 | 0.00 | 0.00 | 58 | 1013.9 |
| 20260507140048 | 70 | 114 | 1.7 | 6.1 | 0.00 | 0.00 | 0.00 | 59 | 1013.9 |
| 20260507135548 | 70 | 120 | 2.6 | 6.1 | 0.00 | 0.00 | 0.00 | 61 | 1014.0 |
| 20260507135047 | 74 | 255 | 0.9 | 4.3 | 0.00 | 0.00 | 0.00 | 56 | 1013.9 |
| 20260507134546 | 70 | 106 | 1.7 | 4.3 | 0.00 | 0.00 | 0.00 | 60 | 1014.1 |
| 20260507134044 | 70 | 166 | 1.7 | 3.5 | 0.00 | 0.00 | 0.00 | 59 | 1014.1 |
| 20260507133543 | 70 | 213 | 1.7 | 7.8 | 0.00 | 0.00 | 0.00 | 63 | 1014.0 |
| 20260507133042 | 70 | 210 | 1.7 | 7.8 | 0.00 | 0.00 | 0.00 | 66 | 1014.0 |
| 20260507132541 | 69 | 194 | 1.7 | 8.7 | 0.00 | 0.00 | 0.00 | 66 | 1014.0 |
| 20260507132040 | 68 | 206 | 4.3 | 8.7 | 0.00 | 0.00 | 0.00 | 70 | 1014.1 |
| 20260507131539 | 68 | 212 | 5.2 | 7.0 | 0.00 | 0.00 | 0.00 | 68 | 1014.0 |
| 20260507131038 | 67 | 188 | 3.5 | 7.8 | 0.00 | 0.00 | 0.00 | 73 | 1014.1 |
| 20260507130537 | 66 | 200 | 3.5 | 7.8 | 0.00 | 0.00 | 0.00 | 76 | 1014.2 |
| 20260507130034 | 65 | 187 | 3.5 | 7.8 | 0.00 | 0.00 | 0.00 | 76 | 1014.2 |
| 20260507125532 | 66 | 205 | 3.5 | 7.0 | 0.00 | 0.00 | 0.00 | 77 | 1014.2 |
| 20260507125032 | 65 | 220 | 3.5 | 7.0 | 0.00 | 0.00 | 0.00 | 78 | 1014.3 |
| 20260507124529 | 65 | 211 | 5.2 | 7.0 | 0.00 | 0.00 | 0.00 | 78 | 1014.2 |
| 20260507124028 | 66 | 195 | 3.5 | 7.0 | 0.00 | 0.00 | 0.00 | 76 | 1014.2 |
| 20260507123527 | 66 | 208 | 2.6 | 7.0 | 0.00 | 0.00 | 0.00 | 75 | 1014.2 |
| 20260507122523 | 66 | 202 | 2.6 | 5.2 | 0.00 | 0.00 | 0.00 | 76 | 1014.2 |
| 20260507122022 | 66 | 201 | 3.5 | 6.1 | 0.00 | 0.00 | 0.00 | 75 | 1014.3 |
| 20260507121521 | 66 | 204 | 3.5 | 6.1 | 0.00 | 0.00 | 0.00 | 74 | 1014.3 |
| 20260507121019 | 67 | 275 | 1.7 | 4.3 | 0.00 | 0.00 | 0.00 | 72 | 1014.3 |
| 20260507120518 | 67 | 266 | 1.7 | 5.2 | 0.00 | 0.00 | 0.00 | 73 | 1014.4 |
| 20260507120017 | 66 | 231 | 1.7 | 6.1 | 0.00 | 0.00 | 0.00 | 73 | 1014.3 |
| 20260507115516 | 66 | 209 | 3.5 | 7.8 | 0.00 | 0.00 | 0.00 | 73 | 1014.4 |
| 20260507115015 | 68 | 209 | 4.3 | 7.8 | 0.00 | 0.00 | 0.00 | 69 | 1014.5 |
| 20260507114514 | 72 | 230 | 0.9 | 5.2 | 0.00 | 0.00 | 0.00 | 63 | 1014.3 |
| 20260507114013 | 69 | 211 | 1.7 | 7.0 | 0.00 | 0.00 | 0.00 | 70 | 1014.5 |
| 20260507113512 | 65 | 266 | 3.5 | 7.0 | 0.00 | 0.00 | 0.00 | 77 | 1014.6 |
| 20260507113011 | 64 | 254 | 3.5 | 7.0 | 0.00 | 0.00 | 0.00 | 79 | 1014.7 |
| 20260507112510 | 63 | 227 | 4.3 | 7.0 | 0.00 | 0.00 | 0.00 | 80 | 1014.7 |
| 20260507112008 | 64 | 194 | 3.5 | 7.0 | 0.00 | 0.00 | 0.00 | 79 | 1014.6 |
| 20260507111507 | 63 | 202 | 4.3 | 7.8 | 0.00 | 0.00 | 0.00 | 78 | 1014.7 |
| 20260507111006 | 63 | 227 | 3.5 | 7.8 | 0.00 | 0.00 | 0.00 | 78 | 1014.8 |
| 20260507110005 | 63 | 202 | 5.2 | 8.7 | 0.00 | 0.00 | 0.00 | 79 | 1014.9 |
| 20260507105503 | 63 | 258 | 5.2 | 8.7 | 0.00 | 0.00 | 0.00 | 78 | 1014.9 |
| 20260507104501 | 64 | 262 | 5.2 | 8.7 | 0.00 | 0.00 | 0.00 | 78 | 1015.0 |
| 20260507103457 | 63 | 263 | 5.2 | 11.3 | 0.00 | 0.00 | 0.00 | 83 | 1015.1 |
| 20260507102955 | 64 | 254 | 5.2 | 11.3 | 0.00 | 0.00 | 0.00 | 83 | 1014.9 |
| 20260507101953 | 64 | 239 | 3.5 | 8.7 | 0.00 | 0.00 | 0.00 | 83 | 1015.0 |
| 20260507101453 | 64 | 246 | 3.5 | 7.0 | 0.00 | 0.00 | 0.00 | 83 | 1015.1 |
| 20260507100951 | 63 | 232 | 4.3 | 8.7 | 0.00 | 0.00 | 0.00 | 84 | 1015.0 |
| 20260507100450 | 62 | 246 | 4.3 | 8.7 | 0.00 | 0.00 | 0.00 | 84 | 1015.0 |
| 20260507095444 | 62 | 246 | 4.3 | 9.6 | 0.00 | 0.00 | 0.00 | 87 | 1015.0 |
| 20260507094942 | 62 | 227 | 5.2 | 9.6 | 0.00 | 0.00 | 0.00 | 88 | 1014.9 |
| 20260507094441 | 62 | 252 | 5.2 | 8.7 | 0.00 | 0.00 | 0.00 | 89 | 1014.9 |
| 20260507093935 | 62 | 235 | 5.2 | 9.6 | 0.00 | 0.00 | 0.00 | 88 | 1014.9 |
| 20260507092933 | 62 | 216 | 4.3 | 8.7 | 0.00 | 0.00 | 0.00 | 85 | 1014.8 |
| 20260507092430 | 63 | 216 | 4.3 | 9.6 | 0.00 | 0.00 | 0.00 | 86 | 1014.8 |
| 20260507091427 | 62 | 214 | 6.1 | 11.3 | 0.00 | 0.00 | 0.00 | 89 | 1014.5 |
| 20260507090926 | 63 | 240 | 5.2 | 10.4 | 0.00 | 0.00 | 0.00 | 87 | 1014.6 |
| 20260507090425 | 62 | 227 | 6.1 | 10.4 | 0.00 | 0.00 | 0.00 | 86 | 1014.5 |
| 20260507085924 | 63 | 217 | 5.2 | 10.4 | 0.00 | 0.00 | 0.00 | 87 | 1014.5 |
| 20260507085422 | 62 | 228 | 7.0 | 12.2 | 0.00 | 0.00 | 0.00 | 84 | 1014.4 |
| 20260507084921 | 64 | 226 | 6.1 | 12.2 | 0.00 | 0.00 | 0.00 | 82 | 1014.2 |
| 20260507084420 | 66 | 242 | 4.3 | 8.7 | 0.00 | 0.00 | 0.00 | 77 | 1014.0 |
| 20260507083918 | 65 | 207 | 4.3 | 10.4 | 0.00 | 0.00 | 0.00 | 80 | 1014.0 |
| 20260507083416 | 65 | 237 | 5.2 | 11.3 | 0.00 | 0.00 | 0.00 | 81 | 1013.9 |
| 20260507082915 | 65 | 218 | 5.2 | 11.3 | 0.00 | 0.00 | 0.00 | 82 | 1013.8 |
| 20260507082414 | 64 | 217 | 5.2 | 13.0 | 0.00 | 0.00 | 0.00 | 84 | 1013.7 |
| 20260507081912 | 64 | 235 | 6.1 | 10.4 | 0.00 | 0.00 | 0.00 | 85 | 1013.8 |
| 20260507080409 | 65 | 220 | 5.2 | 11.3 | 0.00 | 0.00 | 0.00 | 87 | 1013.6 |
| 20260507075904 | 66 | 199 | 4.3 | 8.7 | 0.00 | 0.00 | 0.00 | 84 | 1013.6 |
| 20260507075403 | 66 | 202 | 3.5 | 10.4 | 0.00 | 0.00 | 0.00 | 85 | 1013.6 |
| 20260507074902 | 65 | 193 | 3.5 | 8.7 | 0.00 | 0.00 | 0.00 | 87 | 1013.6 |
| 20260507074401 | 64 | 227 | 4.3 | 8.7 | 0.00 | 0.00 | 0.00 | 89 | 1013.8 |
| 20260507073900 | 64 | 201 | 4.3 | 7.8 | 0.00 | 0.00 | 0.00 | 92 | 1013.7 |
| 20260507073358 | 63 | 256 | 3.5 | 7.8 | 0.00 | 0.00 | 0.00 | 97 | 1013.6 |
| 20260507072857 | 61 | 210 | 3.5 | 7.0 | 0.00 | 0.00 | 0.00 | 98 | 1013.6 |
| 20260507072356 | 60 | 228 | 3.5 | 7.8 | 0.00 | 0.00 | 0.00 | 100 | 1013.7 |
| 20260507071854 | 60 | 201 | 3.5 | 7.8 | 0.00 | 0.00 | 0.00 | 100 | 1013.7 |
| 20260507071353 | 60 | 232 | 2.6 | 7.0 | 0.00 | 0.00 | 0.00 | 100 | 1013.8 |
| 20260507070853 | 59 | 224 | 4.3 | 7.0 | 0.00 | 0.00 | 0.00 | 100 | 1013.7 |
| 20260507065851 | 58 | 227 | 4.3 | 7.8 | 0.00 | 0.00 | 0.00 | 100 | 1013.6 |
| 20260507065349 | 59 | 211 | 2.6 | 7.0 | 0.00 | 0.00 | 0.00 | 100 | 1013.6 |
| 20260507064847 | 58 | 211 | 1.7 | 6.1 | 0.00 | 0.00 | 0.00 | 100 | 1013.5 |
| 20260507064347 | 58 | 200 | 3.5 | 6.1 | 0.00 | 0.00 | 0.00 | 100 | 1013.5 |
| 20260507063846 | 58 | 193 | 2.6 | 8.7 | 0.00 | 0.00 | 0.00 | 100 | 1013.5 |
| 20260507063342 | 57 | 202 | 5.2 | 8.7 | 0.00 | 0.00 | 0.00 | 100 | 1013.5 |
| 20260507062840 | 57 | 203 | 4.3 | 8.7 | 0.00 | 0.00 | 0.00 | 100 | 1013.4 |
| 20260507062339 | 57 | 211 | 2.6 | 7.8 | 0.00 | 0.00 | 0.00 | 100 | 1013.4 |
| 20260507061837 | 57 | 198 | 4.3 | 7.0 | 0.00 | 0.00 | 0.00 | 100 | 1013.4 |
| 20260507060834 | 57 | 191 | 3.5 | 7.0 | 0.00 | 0.00 | 0.00 | 100 | 1013.3 |
| 20260507060333 | 57 | 205 | 3.5 | 8.7 | 0.00 | 0.00 | 0.00 | 100 | 1013.2 |
| 20260507055831 | 57 | 204 | 4.3 | 8.7 | 0.00 | 0.00 | 0.00 | 100 | 1013.1 |
| 20260507055330 | 56 | 200 | 5.2 | 8.7 | 0.00 | 0.00 | 0.00 | 100 | 1013.0 |
| 20260507054830 | 56 | 198 | 4.3 | 8.7 | 0.00 | 0.00 | 0.00 | 100 | 1013.0 |
| 20260507054329 | 56 | 195 | 3.5 | 10.4 | 0.00 | 0.00 | 0.00 | 100 | 1012.9 |
| 20260507053826 | 56 | 188 | 4.3 | 10.4 | 0.00 | 0.00 | 0.00 | 100 | 1012.9 |
| 20260507053325 | 56 | 199 | 5.2 | 10.4 | 0.00 | 0.00 | 0.00 | 100 | 1012.8 |
| 20260507052821 | 56 | 203 | 4.3 | 8.7 | 0.00 | 0.00 | 0.00 | 100 | 1012.8 |
| 20260507052318 | 56 | 205 | 5.2 | 8.7 | 0.00 | 0.00 | 0.00 | 100 | 1012.7 |
| 20260507051817 | 57 | 192 | 4.3 | 8.7 | 0.00 | 0.00 | 0.00 | 100 | 1012.5 |
| 20260507051316 | 57 | 187 | 3.5 | 6.1 | 0.00 | 0.00 | 0.00 | 100 | 1012.5 |
| 20260507050814 | 57 | 167 | 0.9 | 5.2 | 0.00 | 0.00 | 0.00 | 100 | 1012.3 |
| 20260507050309 | 57 | 192 | 2.6 | 6.1 | 0.00 | 0.00 | 0.00 | 100 | 1012.3 |
| 20260507045807 | 56 | 207 | 2.6 | 6.1 | 0.00 | 0.00 | 0.00 | 100 | 1012.4 |
| 20260507045306 | 56 | 214 | 2.6 | 7.0 | 0.00 | 0.00 | 0.00 | 100 | 1012.3 |
| 20260507044803 | 56 | 213 | 3.5 | 7.0 | 0.00 | 0.00 | 0.00 | 100 | 1012.3 |
| 20260507044302 | 56 | 214 | 4.3 | 7.0 | 0.00 | 0.00 | 0.00 | 100 | 1012.2 |
| 20260507043801 | 56 | 202 | 2.6 | 8.7 | 0.00 | 0.00 | 0.00 | 100 | 1012.0 |
| 20260507043259 | 56 | 216 | 2.6 | 6.1 | 0.00 | 0.00 | 0.00 | 100 | 1012.1 |
| 20260507042758 | 56 | 215 | 2.6 | 5.2 | 0.00 | 0.00 | 0.00 | 100 | 1011.9 |
| 20260507042257 | 56 | 199 | 2.6 | 8.7 | 0.00 | 0.00 | 0.00 | 100 | 1011.9 |
| 20260507041755 | 56 | 206 | 3.5 | 8.7 | 0.00 | 0.00 | 0.00 | 100 | 1011.9 |
| 20260507041253 | 56 | 207 | 3.5 | 7.8 | 0.00 | 0.00 | 0.00 | 100 | 1011.9 |
| 20260507040751 | 56 | 211 | 2.6 | 6.1 | 0.00 | 0.00 | 0.00 | 100 | 1011.8 |
| 20260507040250 | 56 | 224 | 1.7 | 3.5 | 0.00 | 0.00 | 0.00 | 100 | 1011.8 |
| 20260507035748 | 56 | 213 | 1.7 | 4.3 | 0.00 | 0.00 | 0.00 | 100 | 1011.8 |
| 20260507035247 | 56 | 210 | 1.7 | 7.8 | 0.00 | 0.00 | 0.00 | 100 | 1011.7 |
| 20260507034746 | 56 | 216 | 4.3 | 7.8 | 0.00 | 0.00 | 0.00 | 100 | 1011.7 |
| 20260507034245 | 56 | 230 | 2.6 | 6.1 | 0.00 | 0.00 | 0.00 | 100 | 1011.6 |
| 20260507033744 | 56 | 218 | 2.6 | 7.0 | 0.00 | 0.00 | 0.00 | 100 | 1011.6 |
| 20260507032530 | 56 | 214 | 1.7 | 5.2 | 0.00 | 0.00 | 0.00 | 100 | 1011.4 |
| 20260507032029 | 56 | 204 | 2.6 | 6.1 | 0.00 | 0.00 | 0.00 | 100 | 1011.2 |
| 20260507031526 | 56 | 196 | 3.5 | 6.1 | 0.00 | 0.00 | 0.00 | 100 | 1011.2 |
| 20260507031025 | 56 | 196 | 3.5 | 6.1 | 0.00 | 0.00 | 0.00 | 100 | 1011.1 |
| 20260507030524 | 56 | 198 | 2.6 | 7.8 | 0.00 | 0.00 | 0.00 | 100 | 1011.1 |
| 20260507030021 | 56 | 191 | 3.5 | 7.8 | 0.00 | 0.00 | 0.00 | 100 | 1011.2 |
| 20260507025521 | 57 | 186 | 2.6 | 5.2 | 0.00 | 0.00 | 0.00 | 100 | 1011.3 |
| 20260507025019 | 57 | 187 | 2.6 | 7.0 | 0.00 | 0.00 | 0.00 | 100 | 1011.1 |
| 20260507024518 | 57 | 179 | 2.6 | 7.0 | 0.00 | 0.00 | 0.00 | 100 | 1011.2 |
| 20260507024017 | 57 | 187 | 3.5 | 10.4 | 0.00 | 0.00 | 0.00 | 100 | 1011.2 |
| 20260507023514 | 57 | 174 | 4.3 | 10.4 | 0.00 | 0.00 | 0.00 | 100 | 1011.2 |
| 20260507023013 | 57 | 173 | 4.3 | 8.7 | 0.00 | 0.00 | 0.00 | 100 | 1011.1 |
| 20260507022511 | 57 | 198 | 3.5 | 7.8 | 0.00 | 0.00 | 0.00 | 100 | 1011.1 |
| 20260507022010 | 57 | 205 | 4.3 | 7.8 | 0.00 | 0.00 | 0.00 | 100 | 1011.1 |
| 20260507021508 | 57 | 189 | 3.5 | 6.1 | 0.00 | 0.00 | 0.00 | 100 | 1011.0 |
| 20260507021007 | 57 | 196 | 1.7 | 8.7 | 0.00 | 0.00 | 0.00 | 100 | 1010.9 |
| 20260507020506 | 57 | 188 | 4.3 | 8.7 | 0.00 | 0.00 | 0.00 | 100 | 1010.9 |
| 20260507020005 | 57 | 177 | 2.6 | 6.1 | 0.00 | 0.00 | 0.00 | 100 | 1010.9 |
| 20260507015504 | 57 | 181 | 2.6 | 5.2 | 0.00 | 0.00 | 0.00 | 100 | 1010.8 |
| 20260507015003 | 57 | 175 | 1.7 | 5.2 | 0.00 | 0.00 | 0.00 | 100 | 1010.8 |
| 20260507014501 | 57 | 166 | 1.7 | 6.1 | 0.00 | 0.00 | 0.00 | 100 | 1010.9 |
| 20260507013459 | 58 | 179 | 4.3 | 7.0 | 0.00 | 0.00 | 0.00 | 100 | 1010.9 |